This is the latest recevied weather packets stored in our database for station/object DM3DP. If no packets are shown the sender has not sent any weather packets the latest 10 day(s).
| Time | Temp. | Humidity | Pressure | Rain* | Wind** | Luminosity | Snow |
|---|---|---|---|---|---|---|---|
| 1777745974 | 20° C | 77% | 1012.4 hPa | 0 mm | - | 5 W/m² | - |
| 1777745643 | 20° C | 77% | 1012.4 hPa | 0 mm | - | 7 W/m² | - |
| 1777745313 | 21.11° C | 77% | 1012.4 hPa | 0 mm | - | 9 W/m² | - |
| 1777744983 | 21.11° C | 75% | 1012.5 hPa | 0 mm | - | 9 W/m² | - |
| 1777744653 | 21.11° C | 75% | 1012.5 hPa | 0 mm | - | 12 W/m² | - |
| 1777744323 | 21.11° C | 73% | 1012.4 hPa | 0 mm | - | 18 W/m² | - |
| 1777743993 | 21.11° C | 72% | 1012.4 hPa | 0 mm | - | 21 W/m² | - |
| 1777743663 | 22.22° C | 68% | 1012.5 hPa | 0 mm | - | 24 W/m² | - |
| 1777743333 | 22.22° C | 65% | 1012.5 hPa | 0 mm | - | 31 W/m² | - |
| 1777743004 | 22.22° C | 64% | 1012.6 hPa | 0 mm | - | 31 W/m² | - |
| 1777742674 | 22.22° C | 64% | 1012.8 hPa | 0 mm | - | 42 W/m² | - |
| 1777742343 | 22.22° C | 64% | 1012.9 hPa | 0 mm | - | 42 W/m² | - |
| 1777742013 | 22.22° C | 64% | 1012.9 hPa | 0 mm | - | 35 W/m² | - |
| 1777741684 | 22.78° C | 62% | 1012.9 hPa | 0 mm | - | 21 W/m² | - |
| 1777741353 | 22.78° C | 62% | 1012.8 hPa | 0 mm | - | 13 W/m² | - |
| 1777741023 | 22.78° C | 61% | 1012.8 hPa | 0 mm | - | 19 W/m² | - |
| 1777740694 | 22.78° C | 59% | 1012.8 hPa | 0 mm | - | 30 W/m² | - |
| 1777740364 | 22.78° C | 59% | 1012.8 hPa | 0 mm | - | 33 W/m² | - |
| 1777740034 | 22.78° C | 56% | 1013 hPa | 0 mm | - | 49 W/m² | - |
| 1777739703 | 22.78° C | 57% | 1013 hPa | 0 mm | - | 64 W/m² | - |
| 1777739374 | 22.78° C | 57% | 1013 hPa | 0 mm | - | 87 W/m² | - |
| 1777739043 | 22.78° C | 57% | 1013.1 hPa | 0 mm | - | 403 W/m² | - |
| 1777738714 | 23.33° C | 56% | 1013.1 hPa | 0 mm | - | 302 W/m² | - |
| 1777738384 | 23.33° C | 56% | 1013.2 hPa | 0 mm | - | 159 W/m² | - |
| 1777738053 | 23.33° C | 56% | 1013.2 hPa | 0 mm | - | 238 W/m² | - |
* Rain latest hour (hover to see other rain measurements)
** Current wind speed in m/s (hover to see current wind gust speed)